Hot Springs, VA

8:29 PM EDT on June 22, 2017 (GMT -0400)
Ingalls

Weather History for KHSP - November, 2011

Change the Weather History Date:

Monday, November 7, 2011

  Actual Average Record
Temperature  
Mean Temperature 48 °F -  
Max Temperature 57 °F 48 °F 64 °F (2008)
Min Temperature 39 °F 34 °F 23 °F (2010)
Degree Days  
Heating Degree Days 17    
Moisture  
Dew Point 35 °F    
Average Humidity 61    
Maximum Humidity 87    
Minimum Humidity 41    
Precipitation  
Precipitation 0.00 in - - ()
Sea Level Pressure  
Sea Level Pressure 30.40 in    
Wind  
Wind Speed 10 mph (West)    
Max Wind Speed 17 mph    
Max Gust Speed 21 mph    
Visibility 10 miles    
Events      
Averages and records for this station are not official NWS values.
T = Trace of Precipitation, MM = Missing Value Source: NWS Daily Summary

Daily Weather History Graph

Daily Weather History Graph

Search for Another Location

Airport or City:

Trip Planner

Search our weather history database for the weather conditions in past years. The results will help you decide how hot, cold, wet, or windy it might be!

Date:

Astronomy

Nov. 07, 2011 Rise Set
Actual Time 6:50 AM EST 5:14 PM EST
Civil Twilight 6:23 AM EST 5:42 PM EST
Nautical Twilight 5:52 AM EST 6:13 PM EST
Astronomical Twilight 5:21 AM EST 6:44 PM EST
Moon 3:23 PM EST (11/7) 3:54 AM EST (11/7)
Length of Visible Light 11h 18m
Length of Day
10h 23m
Waxing Gibbous, 91% of the Moon is Illuminated
Nov 7
Waxing Gibbous
Nov 10
Full
Nov 18
Last Quarter
Nov 25
New
Dec 2
First Quarter

Hourly Weather History & Observations

Time (EST) Temp. Windchill Dew Point Humidity Pressure Visibility Wind Dir Wind Speed Gust Speed Precip Events Conditions
12:15 AM 41.0 °F 36.4 °F 33.8 °F 76% 30.40 in 10.0 mi SW 6.9 mph - N/A   Clear
12:35 AM 41.0 °F 35.8 °F 33.8 °F 76% 30.40 in 10.0 mi WSW 8.1 mph - N/A   Clear
12:55 AM 41.0 °F 33.9 °F 35.6 °F 81% 30.40 in 10.0 mi West 12.7 mph - N/A   Clear
1:15 AM 41.0 °F 33.9 °F 35.6 °F 81% 30.39 in 10.0 mi West 12.7 mph - N/A   Clear
1:35 AM 41.0 °F 33.1 °F 35.6 °F 81% 30.39 in 10.0 mi WSW 15.0 mph - N/A   Clear
1:55 AM 41.0 °F 33.9 °F 35.6 °F 81% 30.40 in 10.0 mi West 12.7 mph - N/A   Clear
2:15 AM 41.0 °F 33.5 °F 35.6 °F 81% 30.39 in 10.0 mi West 13.8 mph - N/A   Clear
2:35 AM 41.0 °F 33.5 °F 35.6 °F 81% 30.39 in 10.0 mi West 13.8 mph - N/A   Clear
2:55 AM 41.0 °F 33.9 °F 35.6 °F 81% 30.40 in 10.0 mi West 12.7 mph - N/A   Clear
3:15 AM 39.2 °F 32.0 °F 35.6 °F 87% 30.39 in 10.0 mi West 11.5 mph - N/A   Clear
3:35 AM 41.0 °F 34.3 °F 33.8 °F 76% 30.39 in 10.0 mi West 11.5 mph - N/A   Clear
3:55 AM 42.8 °F 36.2 °F 33.8 °F 70% 30.39 in 10.0 mi West 12.7 mph - N/A   Clear
4:15 AM 41.0 °F 33.9 °F 33.8 °F 76% 30.39 in 10.0 mi West 12.7 mph - N/A   Clear
4:35 AM 42.8 °F 35.8 °F 33.8 °F 70% 30.40 in 10.0 mi West 13.8 mph - N/A   Clear
4:55 AM 42.8 °F 35.8 °F 33.8 °F 70% 30.40 in 10.0 mi West 13.8 mph - N/A   Clear
5:35 AM 42.8 °F 35.8 °F 33.8 °F 70% 30.40 in 10.0 mi West 13.8 mph - N/A   Clear
5:55 AM 42.8 °F 36.2 °F 32.0 °F 66% 30.40 in 10.0 mi West 12.7 mph - N/A   Clear
6:15 AM 44.6 °F 38.4 °F 32.0 °F 61% 30.41 in 10.0 mi West 12.7 mph - N/A   Clear
6:35 AM 42.8 °F 35.8 °F 32.0 °F 66% 30.41 in 10.0 mi West 13.8 mph - N/A   Clear
6:55 AM 42.8 °F 35.1 °F 33.8 °F 70% 30.41 in 10.0 mi WNW 16.1 mph - N/A   Clear
7:15 AM 44.6 °F 37.4 °F 33.8 °F 66% 30.41 in 10.0 mi WNW 16.1 mph - N/A   Clear
7:35 AM 44.6 °F 37.8 °F 33.8 °F 66% 30.42 in 10.0 mi WNW 15.0 mph - N/A   Clear
7:55 AM 44.6 °F 37.2 °F 33.8 °F 66% 30.42 in 10.0 mi WNW 17.3 mph - N/A   Clear
8:15 AM 44.6 °F 37.4 °F 33.8 °F 66% 30.43 in 10.0 mi WNW 16.1 mph - N/A   Clear
8:35 AM 46.4 °F 39.5 °F 33.8 °F 62% 30.43 in 10.0 mi WNW 17.3 mph - N/A   Clear
8:55 AM 46.4 °F 39.8 °F 35.6 °F 66% 30.43 in 10.0 mi WNW 16.1 mph - N/A   Clear
9:15 AM 46.4 °F 39.5 °F 35.6 °F 66% 30.43 in 10.0 mi WNW 17.3 mph - N/A   Clear
9:35 AM 48.2 °F - 35.6 °F 62% 30.43 in 10.0 mi WNW 15.0 mph 20.7 mph N/A   Clear
9:55 AM 48.2 °F - 35.6 °F 62% 30.43 in 10.0 mi WNW 13.8 mph - N/A   Clear
10:15 AM 48.2 °F - 35.6 °F 62% 30.43 in 10.0 mi WNW 13.8 mph - N/A   Clear
10:35 AM 48.2 °F - 35.6 °F 62% 30.43 in 10.0 mi WNW 15.0 mph - N/A   Clear
10:55 AM 51.8 °F - 35.6 °F 54% 30.43 in 10.0 mi WNW 12.7 mph - N/A   Clear
11:15 AM 51.8 °F - 35.6 °F 54% 30.43 in 10.0 mi WNW 11.5 mph - N/A   Clear
11:35 AM 51.8 °F - 35.6 °F 54% 30.43 in 10.0 mi NW 5.8 mph - N/A   Clear
11:55 AM 51.8 °F - 35.6 °F 54% 30.42 in 10.0 mi North 5.8 mph - N/A   Clear
12:15 PM 53.6 °F - 35.6 °F 51% 30.42 in 10.0 mi North 4.6 mph - N/A   Clear
12:35 PM 53.6 °F - 35.6 °F 51% 30.41 in 10.0 mi WNW 3.5 mph - N/A   Clear
12:55 PM 55.4 °F - 35.6 °F 47% 30.41 in 10.0 mi WNW 4.6 mph - N/A   Clear
1:15 PM 55.4 °F - 33.8 °F 44% 30.40 in 10.0 mi WNW 5.8 mph - N/A   Clear
1:35 PM 55.4 °F - 35.6 °F 47% 30.39 in 10.0 mi West 3.5 mph - N/A   Clear
1:55 PM 57.2 °F - 33.8 °F 41% 30.39 in 10.0 mi Calm Calm - N/A   Clear
2:15 PM 57.2 °F - 37.4 °F 48% 30.38 in 10.0 mi East 3.5 mph - N/A   Clear
2:35 PM 57.2 °F - 37.4 °F 48% 30.38 in 10.0 mi Calm Calm - N/A   Clear
2:55 PM 57.2 °F - 35.6 °F 44% 30.38 in 10.0 mi SE 4.6 mph - N/A   Clear
3:15 PM 57.2 °F - 37.4 °F 48% 30.38 in 10.0 mi East 3.5 mph - N/A   Clear
3:35 PM 57.2 °F - 37.4 °F 48% 30.38 in 10.0 mi Calm Calm - N/A   Clear
3:55 PM 55.4 °F - 35.6 °F 47% 30.38 in 1.8 mi ESE 3.5 mph - N/A   Haze
4:15 PM 55.4 °F - 37.4 °F 51% 30.38 in 10.0 mi Calm Calm - N/A   Clear
4:35 PM 53.6 °F - 37.4 °F 54% 30.38 in 10.0 mi Calm Calm - N/A   Clear
4:55 PM 53.6 °F - 35.6 °F 51% 30.37 in 10.0 mi Calm Calm - N/A   Clear
5:15 PM 51.8 °F - 35.6 °F 54% 30.38 in 10.0 mi Calm Calm - N/A   Clear
5:19 PM 51.8 °F - 35.6 °F 54% 30.38 in 10.0 mi South 3.5 mph - N/A   Clear
5:35 PM 50.0 °F - 35.6 °F 58% 30.38 in 10.0 mi South 3.5 mph - N/A   Clear
5:55 PM 50.0 °F - 37.4 °F 62% 30.37 in 10.0 mi South 4.6 mph - N/A   Clear
6:15 PM 51.8 °F - 35.6 °F 54% 30.38 in 10.0 mi SSW 4.6 mph - N/A   Clear
6:55 PM 48.2 °F - 30.2 °F 50% 30.39 in 10.0 mi South 5.8 mph - N/A   Clear
7:15 PM 48.2 °F - 32.0 °F 54% 30.38 in 10.0 mi South 4.6 mph - N/A   Clear
7:35 PM 51.8 °F - 32.0 °F 47% 30.38 in 10.0 mi SW 3.5 mph - N/A   Clear
7:55 PM 51.8 °F - 32.0 °F 47% 30.38 in 10.0 mi SW 4.6 mph - N/A   Clear
8:15 PM 51.8 °F - 32.0 °F 47% 30.39 in 10.0 mi SSW 3.5 mph - N/A   Clear
8:35 PM 51.8 °F - 33.8 °F 50% 30.39 in 10.0 mi WSW 4.6 mph - N/A   Clear
9:15 PM 44.6 °F 43.1 °F 30.2 °F 57% 30.39 in 10.0 mi West 3.5 mph - N/A   Clear
9:35 PM 50.0 °F - 32.0 °F 50% 30.39 in 10.0 mi WSW 4.6 mph - N/A   Clear
9:55 PM 48.2 °F - 33.8 °F 58% 30.38 in 10.0 mi SW 3.5 mph - N/A   Clear
10:15 PM 48.2 °F - 33.8 °F 58% 30.38 in 10.0 mi SW 3.5 mph - N/A   Clear
10:35 PM 48.2 °F - 32.0 °F 54% 30.38 in 10.0 mi WSW 5.8 mph - N/A   Clear
10:55 PM 42.8 °F 39.3 °F 32.0 °F 66% 30.37 in 10.0 mi WSW 5.8 mph - N/A   Clear
11:15 PM 46.4 °F 44.3 °F 33.8 °F 62% 30.37 in 10.0 mi WSW 4.6 mph - N/A   Clear
11:35 PM 48.2 °F - 33.8 °F 58% 30.36 in 10.0 mi WSW 3.5 mph - N/A   Clear
11:55 PM 48.2 °F - 33.8 °F 58% 30.36 in 10.0 mi WSW 3.5 mph - N/A   Clear